DW9271 Weather Reports


Display with metric or nautical units.
time (UTC)temp
F
wind
direction
speed
MPH
gust
MPH
rain 1hr
in
rain 24hr
in
rain mn
in
humidity
%
barometer
mb
20260905014522 73 107 0.0 2.0 0.00 0.81 0.75 92 1012.0
20260905013017 73 112 0.0 2.0 0.00 0.81 0.75 91 1012.1
20260905011517 73 114 0.0 0.0 0.00 0.81 0.75 91 1011.9
20260905010019 73 116 0.0 2.0 0.00 0.81 0.75 91 1011.7
20260905004521 73 117 0.0 3.0 0.00 0.81 0.75 91 1011.7
20260905003028 73 95 0.0 3.0 0.00 0.81 0.75 90 1011.8
20260905001540 73 93 0.0 4.0 0.00 0.81 0.75 90 1011.7
20260905000014 73 90 0.0 3.0 0.00 0.81 0.75 89 1011.6
20260904234517 74 93 0.0 4.0 0.00 0.81 0.75 89 1011.7
20260904233035 74 88 2.0 6.0 0.00 0.81 0.75 88 1011.4
20260904231512 74 102 1.0 6.0 0.00 0.81 0.75 87 1011.4
20260904230013 74 88 1.0 8.0 0.00 0.81 0.75 86 1011.2
20260904224511 75 80 1.0 8.0 0.00 0.81 0.75 85 1011.0
20260904223011 76 78 0.0 6.0 0.00 0.81 0.75 86 1010.8
20260904221511 76 61 3.0 9.0 0.00 0.81 0.75 85 1010.7
20260904220010 77 87 3.0 9.0 0.00 0.81 0.75 84 1010.7
20260904214509 79 97 2.0 10.0 0.00 0.81 0.75 82 1010.5
20260904213020 81 95 1.0 7.0 0.00 0.81 0.75 80 1010.4
20260904211507 82 59 0.0 5.0 0.00 0.81 0.75 78 1010.1
20260904210007 82 315 0.0 0.0 0.00 0.81 0.75 78 1010.1
20260904204506 83 298 0.0 0.0 0.00 0.81 0.75 77 1010.0
20260904203006 83 302 0.0 4.0 0.00 0.81 0.75 75 1010.1
20260904201502 82 338 1.0 5.0 0.00 0.81 0.75 77 1010.2
20260904200105 81 346 0.0 1.0 0.00 0.81 0.75 78 1010.3
20260904194559 81 267 0.0 3.0 0.00 0.81 0.75 79 1010.6
20260904193118 81 269 0.0 2.0 0.00 0.81 0.75 79 1010.8
20260904191558 81 344 2.0 5.0 0.00 0.81 0.75 78 1010.8
20260904190058 81 319 1.0 3.0 0.00 0.81 0.75 79 1011.1
20260904184556 81 232 0.0 3.0 0.00 0.81 0.75 77 1011.0
20260904183054 80 200 0.0 5.0 0.00 0.81 0.75 79 1011.1
20260904181552 80 208 1.0 5.0 0.00 0.81 0.75 80 1011.1
20260904180050 79 284 3.0 9.0 0.00 0.81 0.75 81 1011.1
20260904174546 78 209 0.0 8.0 0.00 0.81 0.75 83 1011.0
20260904173051 77 279 0.0 3.0 0.00 0.81 0.75 85 1011.3
20260904171540 76 325 0.0 4.0 0.00 0.81 0.75 87 1011.4
20260904170037 75 276 0.0 5.0 0.00 0.82 0.75 89 1011.4
20260904164534 74 225 0.0 2.0 0.00 0.82 0.75 92 1011.3
20260904163029 72 284 0.0 3.0 0.00 0.82 0.75 94 1011.3
20260904161529 71 199 0.0 5.0 0.00 0.82 0.75 96 1011.3
20260904160025 71 198 0.0 1.0 0.00 0.94 0.75 97 1011.3
20260904154520 70 209 0.0 5.0 0.00 0.94 0.75 97 1011.1
20260904153020 69 199 0.0 2.0 0.00 0.94 0.75 98 1011.3
20260904151518 69 202 1.0 5.0 0.00 0.94 0.75 98 1011.3
20260904150023 68 203 0.0 3.0 0.00 1.30 0.75 98 1011.4
20260904144517 68 203 0.0 4.0 0.00 1.30 0.75 98 1011.4
20260904143017 68 200 0.0 3.0 0.00 1.30 0.75 98 1011.6
20260904141517 67 188 0.0 6.0 0.00 1.30 0.75 98 1011.5
20260904140016 67 204 0.0 4.0 0.00 1.30 0.75 98 1011.5
20260904134515 67 199 0.0 0.0 0.00 1.30 0.75 98 1011.0
20260904133015 67 199 0.0 1.0 0.00 1.30 0.75 98 1011.7
20260904131513 67 205 1.0 6.0 0.00 1.30 0.75 98 1011.9
20260904130013 68 317 0.0 3.0 0.00 1.30 0.75 98 1011.8
20260904124513 67 140 0.0 0.0 0.00 1.30 0.75 98 1012.1
20260904123011 67 138 1.0 5.0 0.01 1.30 0.75 98 1011.0
20260904121510 67 142 1.0 4.0 0.01 1.30 0.75 98 1010.8
20260904120008 67 140 2.0 7.0 0.07 1.30 0.75 98 1010.9
20260904114506 68 150 2.0 9.0 0.08 1.30 0.75 98 1011.1
20260904113006 68 143 1.0 8.0 0.21 1.29 0.74 98 1011.2
20260904111503 68 138 1.0 4.0 0.26 1.29 0.74 98 1011.8
20260904110003 68 138 0.0 5.0 0.36 1.23 0.68 98 1011.9
20260904104502 68 131 3.0 8.0 0.39 1.22 0.67 98 1011.5
20260904103001 68 124 0.0 6.0 0.28 1.08 0.53 98 1011.9
20260904101502 69 120 0.0 3.0 0.23 1.02 0.47 98 1011.7
20260904100122 69 119 0.0 1.0 0.17 0.87 0.32 98 1011.8
20260904094600 69 87 0.0 2.0 0.17 0.83 0.28 98 1011.4
20260904093104 69 324 0.0 4.0 0.16 0.79 0.24 98 1012.3
20260904091559 69 355 0.0 0.0 0.17 0.79 0.24 98 1010.8
20260904090054 69 355 0.0 1.0 0.08 0.70 0.15 97 1011.2
20260904084554 69 355 0.0 2.0 0.05 0.66 0.11 97 1011.7
20260904083055 69 135 0.0 0.0 0.04 0.63 0.08 97 1011.8
20260904081552 69 138 0.0 0.0 0.04 0.62 0.07 97 1011.1
20260904080052 69 138 0.0 3.0 0.04 0.62 0.07 97 1010.0
20260904074601 69 143 0.0 3.0 0.05 0.61 0.06 97 1010.0
20260904073050 69 178 0.0 0.0 0.04 0.59 0.04 97 1011.0
20260904071615 69 178 0.0 0.0 0.03 0.57 0.03 97 1011.7
20260904070101 69 184 0.0 0.0 0.03 0.57 0.03 97 1010.9
20260904064603 69 201 0.0 3.0 0.01 0.56 0.01 97 1010.8
20260904063052 69 103 2.0 4.0 0.00 0.55 0.00 97 1010.1
20260904061545 69 24 1.0 5.0 0.00 0.55 0.00 97 1010.9
20260904060046 69 132 0.0 7.0 0.00 0.55 0.00 97 1010.4
20260904054544 69 134 1.0 8.0 0.00 0.55 0.00 97 1010.9
20260904053054 68 132 4.0 8.0 0.01 0.55 0.00 97 1010.0
20260904051540 68 140 2.0 9.0 0.01 0.55 0.00 97 1010.8
20260904050036 68 135 5.0 12.0 0.01 0.55 0.55 97 1011.6
20260904044534 68 31 0.0 3.0 0.01 0.55 0.55 96 1012.5
20260904043033 68 21 0.0 0.0 0.00 0.54 0.54 96 1013.4
20260904041537 68 22 0.0 0.0 0.00 0.54 0.54 96 1013.0
20260904040032 68 22 0.0 0.0 0.01 0.54 0.54 96 1012.4
20260904034534 68 83 0.0 2.0 0.03 0.54 0.54 95 1012.4
20260904033031 68 127 1.0 8.0 0.05 0.54 0.54 96 1011.5
20260904031531 68 128 5.0 10.0 0.05 0.54 0.54 95 1011.0
20260904030035 69 121 2.0 5.0 0.04 0.53 0.53 94 1012.4
20260904024526 70 44 0.0 0.0 0.02 0.51 0.51 94 1013.7
20260904023024 70 44 0.0 1.0 0.00 0.49 0.49 94 1013.6
20260904021533 70 344 0.0 3.0 0.00 0.49 0.49 94 1013.0
20260904020018 70 78 0.0 3.0 0.00 0.49 0.49 93 1012.4